Flag for Germany Weather past 2 weeks in Laatzen, Lower Saxony, Germany

Now
54 °F

Fog.


Feels Like: 54 °F
Forecast: 53 / 67 °F
Wind: 1 mph from Southwest

Location: Hannover

Current Time: Oct 1, 2014 at 12:37:45 AM

Latest Report: Oct 1, 2014 at 12:00 AM


Visibility: 0 mi

Pressure: 30.29 "Hg

Humidity: 98%

Dew point: 54 °F

Location of LaatzenLocation

Historic Weather in Laatzen — Graph

°F

Laatzen temperature yesterday

Maximum temperature yesterday: 67 °F (at 5:00 PM)
Minimum temperature yesterday: 56 °F (at 11:00 PM)
Average temperature yesterday: 61 °F

Past Weeks' High & Low Weather Summary

 TemperatureHumidityPressure
High75 °F (Sep 18, 3:00 PM)100% (Sep 16, 12:00 AM)30.40 "Hg (Sep 16, 12:00 AM)
Low42 °F (Sep 23, 7:00 AM)49% (Sep 17, 6:00 PM)29.81 "Hg (Sep 24, 7:00 PM)
Average60 °F84%30.06 "Hg
* Reported Sep 15 11:00 PM — Sep 30 11:00 PM, Laatzen, Weather by CustomWeather, © 2014

Note: Actual official high and low records may vary slightly from our data, if they occured in-between our weather recording intervals... More about our weather records

Advertising

Laatzen weather history for previous 24 hours

 ConditionsComfort  
Time TempWeatherWind HumidityBarometerVisibility
11:00 PM
Sep 30
56 °FFog.1 mph94%30.29 "Hg1 mi
10:00 PM57 °FFog.2 mph93%30.29 "Hg3 mi
9:00 PM60 °FPassing clouds.2 mph85%30.28 "Hg6 mi
8:00 PM61 °FPassing clouds.2 mph83%30.27 "Hg7 mi
7:00 PM63 °FScattered clouds.2 mph76%30.26 "Hg7 mi
6:00 PM65 °FPassing clouds.2 mph73%30.25 "Hg7 mi
5:00 PM67 °FScattered clouds.5 mph66%30.25 "Hg7 mi
4:00 PM65 °FPassing clouds.3 mph75%30.25 "Hg1 mi
3:00 PM65 °FPartly sunny.3 mph78%30.26 "Hg5 mi
2:00 PM64 °FOvercast.3 mph85%30.25 "Hg5 mi
1:00 PM63 °FOvercast.5 mph88%30.25 "Hg5 mi
12:00 PM64 °FFog.3 mph92%30.24 "Hg4 mi
10:00 AM62 °FOvercast.2 mph96%30.24 "Hg5 mi
9:00 AM60 °FOvercast.2 mph97%30.22 "Hg6 mi
8:00 AM59 °FCool.2 mph100%30.22 "HgN/A
7:00 AM59 °FFog.2 mph100%30.21 "Hg3 mi
6:00 AM59 °FLight rain. Low clouds.2 mph100%30.21 "Hg3 mi
4:00 AM59 °FRain. Low clouds.2 mph100%30.21 "Hg2 mi
3:00 AM60 °FLight rain. Low clouds.2 mph99%30.21 "Hg2 mi
2:00 AM61 °FLight rain. Overcast.2 mph99%30.21 "Hg4 mi
1:00 AM61 °FLight rain. Overcast.2 mph99%30.21 "Hg3 mi
12:00 AM62 °FRain. Overcast.5 mph98%30.22 "Hg3 mi
Weather by CustomWeather, © 2014

See weather overviewHow to use our weather pages